Tracking 25734 objects as of 27-May-2022
HD Live streaming from Space Station
objects crossing your sky now

SL-18 DEB

Track SL-18 DEB now!
10-day predictions


NORAD ID: 28292
Int'l Code: 1993-014V
Perigee: 668.9 km
Apogee: 880.6 km
Inclination: 75.8 °
Period: 100.2 minutes
Semi major axis: 7145 km
RCS: 0.016 m2 (small)
Launch date: March 25, 1993
Source: Commonwealth of Independent States (former USSR) (CIS)
Launch site: PLESETSK MISSILE AND SPACE COMPLEX (PKMTR)

Note: This is SATELLITE DEBRIS
aabbcc
Your satellite tracking list
Your tracking list is empty




NASA's NSSDC Master Catalog

Two Line Element Set (TLE):
1 28292U 93014V   22146.92554312  .00000956  00000-0  28799-3 0  9994
2 28292  75.7595 337.7386 0148119 310.7112  48.1260 14.37245877470403
Source of the keplerian elements: AFSPC